Starlink 4059

operational
NORAD ID: 53250 Int'l Des: 2022-086 Owner: SPXS Country: US Constellation: starlink
LEOCIRCULAR

关于 Starlink 4059

正在加载描述...

实时位置

正在加载3D地球...

即将过境

高度历史

Altitude vs Time

uPlot chart will show altitude changes over time

两行轨道根数

1 53250U 22086J 25303.75027752 .00000742 00000-0 64701-4 0 9996
2 53250 53.2164 57.4412 0001338 94.6127 265.5018 15.08843329181465
Epoch: Oct 30, 2025 • Age: 25 hours

当前状态

高度 549.2 km
速度 7.59 km/s
星下点 -29.60°S, 64.75°W
发射日期 Jul 24, 2022
运行时间 3.2 years
类型 internet

技术详情

分类 Payload
质量 297.00 kg
干质量 275.00 kg
总质量 297.00 kg
长度 0.20 m
直径 2.80 m
跨度 9.00 m
形状 Box + pan
制造商 SPXS
平台类型 Starlink
阶段状态 In Orbit
所有者/国家 SPXS/US

大型星座

Loading constellations...